Flag for Canada Weather past 2 weeks in Grande Prairie, Alberta, Canada

Now
34 °F

Passing clouds.


Feels Like: 26 °F
Forecast: 32 / 57 °F
Wind: 10 mph from Southwest

Location: Grande Prairie

Current Time: Apr 19, 2015 at 2:27:55 AM

Latest Report: Apr 19, 2015 at 2:00 AM


Visibility: 25 mi

Pressure: 30.34 "Hg

Humidity: 70%

Dew point: 25 °F

Location of Grande PrairieLocation

Historic Weather in Grande Prairie — Graph

°F

Grande Prairie temperature yesterday

Maximum temperature yesterday: 52 °F (at 5:00 PM)
Minimum temperature yesterday: 30 °F (at 7:00 AM)
Average temperature yesterday: 42 °F

Past Weeks' High & Low Weather Summary

 TemperatureHumidityPressure
High64 °F (Apr 9, 5:00 PM)93% (Apr 4, 3:00 AM)30.44 "Hg (Apr 4, 3:00 AM)
Low25 °F (Apr 5, 4:00 AM)19% (Apr 9, 6:00 PM)29.34 "Hg (Apr 11, 5:00 AM)
Average41 °F54%29.94 "Hg
* Reported Apr 4 1:00 AM — Apr 19 1:00 AM, Grande Prairie, Weather by CustomWeather, © 2015

Note: Actual official high and low records may vary slightly from our data, if they occured in-between our weather recording intervals... More about our weather records

Advertising

Grande Prairie weather history for previous 24 hours

 ConditionsComfort  
Time TempWeatherWind HumidityBarometerVisibility
1:00 AM
Sun, Apr 19
39 °FPassing clouds.6 mph56%30.34 "Hg25 mi
12:00 AM43 °FPassing clouds.9 mph46%30.35 "Hg25 mi
11:00 PM
Sat, Apr 18
43 °FPassing clouds.6 mph49%30.34 "Hg25 mi
10:00 PM45 °FPartly sunny.9 mph46%30.34 "Hg25 mi
9:00 PM48 °FPassing clouds.5 mph34%30.33 "Hg25 mi
8:00 PM50 °FPassing clouds.No wind28%30.33 "Hg25 mi
7:00 PM52 °FPassing clouds.3 mph26%30.35 "Hg25 mi
6:00 PM52 °FScattered clouds.3 mph28%30.35 "Hg25 mi
5:00 PM52 °FScattered clouds.5 mph30%30.36 "Hg25 mi
4:00 PM50 °FScattered clouds.5 mph32%30.38 "Hg25 mi
3:00 PM48 °FScattered clouds.6 mph37%30.40 "Hg25 mi
2:00 PM48 °FScattered clouds.12 mph37%30.41 "Hg25 mi
1:00 PM46 °FBroken clouds.9 mph46%30.43 "Hg25 mi
12:00 PM45 °FScattered clouds.8 mph46%30.43 "Hg25 mi
11:00 AM43 °FScattered clouds.12 mph57%30.43 "Hg25 mi
10:00 AM41 °FPassing clouds.13 mph57%30.44 "Hg25 mi
9:00 AM39 °FPassing clouds.10 mph65%30.42 "Hg25 mi
8:00 AM34 °FPassing clouds.5 mph81%30.42 "Hg25 mi
7:00 AM30 °FPassing clouds.6 mph86%30.40 "Hg25 mi
6:00 AM34 °FPassing clouds.8 mph81%30.37 "Hg25 mi
5:00 AM34 °FPassing clouds.9 mph81%30.34 "Hg25 mi
4:00 AM34 °FPassing clouds.6 mph93%30.32 "Hg20 mi
3:00 AM36 °FMostly cloudy.9 mph93%30.31 "Hg20 mi
2:00 AM37 °FMostly cloudy.10 mph87%30.29 "Hg20 mi
Weather by CustomWeather, © 2015

See weather overviewHow to use our weather pages